Location: Les Thiberg�res
(47.8554°N, 1.0978°W)
Time: 21:47:23
(UTC+00:00)

METEOR-M - Pass Details

Date: 17 February 2020
Orbit: 815 x 820 km, 98.4° (Epoch: 29 March)

Event Time Altitude Azimuth Distance (km) Brightness Sun altitude
Rises 06:01:57 0° 10° (N) 3,360 7.4 -11.7°
Reaches altitude 10° 06:04:21 10° 5° (N) 2,423 6.6 -11.3°
Maximum altitude 06:09:31 50° 291° (WNW) 1,032 4.3 -10.5°
Drops below altitude 10° 06:14:38 10° 217° (SW) 2,404 6.3 -9.6°
Sets 06:17:01 0° 213° (SSW) 3,331 7.1 -9.2°
